| time (UTC) | temp F | wind direction | speed MPH | gust MPH | rain 1hr in | rain 24hr in | rain mn in | humidity % | barometer mb |
| 20260506040038 | 56 | 244 | 0.0 | 0.0 | 0.00 | 0.00 | 0.00 | 83 | 1016.7 |
| 20260506034531 | 56 | 265 | 0.0 | 0.0 | 0.00 | 0.00 | 0.00 | 83 | 1016.5 |
| 20260506033049 | 56 | 231 | 0.0 | 5.0 | 0.00 | 0.00 | 0.00 | 83 | 1016.4 |
| 20260506031542 | 56 | 288 | 0.0 | 4.0 | 0.00 | 0.00 | 0.00 | 82 | 1016.4 |
| 20260506030031 | 56 | 240 | 4.0 | 7.0 | 0.00 | 0.00 | 0.00 | 83 | 1016.3 |
| 20260506024545 | 57 | 261 | 3.0 | 7.0 | 0.00 | 0.00 | 0.00 | 82 | 1016.2 |
| 20260506023042 | 58 | 246 | 3.0 | 7.0 | 0.00 | 0.00 | 0.00 | 82 | 1016.1 |
| 20260506021536 | 58 | 188 | 5.0 | 8.0 | 0.00 | 0.00 | 0.00 | 82 | 1016.2 |
| 20260506020104 | 58 | 280 | 3.0 | 5.0 | 0.00 | 0.00 | 0.00 | 82 | 1016.1 |
| 20260506014540 | 58 | 258 | 5.0 | 9.0 | 0.00 | 0.00 | 0.00 | 81 | 1016.1 |
| 20260506013034 | 59 | 248 | 4.0 | 7.0 | 0.00 | 0.00 | 0.00 | 82 | 1016.1 |
| 20260506011530 | 59 | 247 | 6.0 | 10.0 | 0.00 | 0.00 | 0.00 | 81 | 1016.2 |
| 20260506010058 | 59 | 360 | 5.0 | 10.0 | 0.00 | 0.00 | 0.00 | 82 | 1016.0 |
| 20260506004530 | 59 | 245 | 7.0 | 9.0 | 0.00 | 0.00 | 0.00 | 81 | 1016.1 |
| 20260506003106 | 59 | 229 | 5.0 | 9.0 | 0.00 | 0.00 | 0.00 | 81 | 1016.0 |
| 20260506001538 | 59 | 255 | 5.0 | 14.0 | 0.00 | 0.00 | 0.00 | 82 | 1016.2 |
| 20260506000030 | 60 | 227 | 7.0 | 11.0 | 0.00 | 0.00 | 0.00 | 81 | 1016.2 |
| 20260505234544 | 60 | 250 | 5.0 | 10.0 | 0.00 | 0.00 | 0.00 | 81 | 1016.2 |
| 20260505233041 | 60 | 219 | 6.0 | 11.0 | 0.00 | 0.00 | 0.00 | 81 | 1016.3 |
| 20260505231534 | 60 | 246 | 7.0 | 10.0 | 0.00 | 0.00 | 0.00 | 80 | 1016.3 |
| 20260505230041 | 60 | 247 | 6.0 | 9.0 | 0.00 | 0.00 | 0.00 | 81 | 1016.4 |
| 20260505224540 | 60 | 268 | 6.0 | 9.0 | 0.00 | 0.00 | 0.00 | 81 | 1016.6 |
| 20260505223033 | 60 | 360 | 7.0 | 11.0 | 0.00 | 0.00 | 0.00 | 82 | 1016.6 |
| 20260505221530 | 61 | 250 | 6.0 | 9.0 | 0.00 | 0.00 | 0.00 | 80 | 1016.7 |
| 20260505220038 | 60 | 242 | 6.0 | 11.0 | 0.00 | 0.00 | 0.00 | 81 | 1016.7 |
| 20260505214556 | 60 | 360 | 6.0 | 10.0 | 0.00 | 0.00 | 0.00 | 81 | 1016.7 |
| 20260505213049 | 59 | 240 | 7.0 | 11.0 | 0.00 | 0.00 | 0.00 | 82 | 1016.9 |
| 20260505211542 | 60 | 243 | 5.0 | 10.0 | 0.00 | 0.00 | 0.00 | 82 | 1016.9 |
| 20260505210032 | 60 | 245 | 5.0 | 8.0 | 0.00 | 0.00 | 0.00 | 81 | 1016.7 |
| 20260505204605 | 60 | 222 | 4.0 | 10.0 | 0.00 | 0.00 | 0.00 | 81 | 1016.7 |
| 20260505203041 | 59 | 360 | 2.0 | 7.0 | 0.00 | 0.00 | 0.00 | 82 | 1016.8 |
| 20260505201536 | 59 | 221 | 0.0 | 6.0 | 0.00 | 0.00 | 0.00 | 82 | 1016.8 |
| 20260505200030 | 58 | 239 | 5.0 | 9.0 | 0.00 | 0.00 | 0.00 | 82 | 1016.9 |
| 20260505194603 | 58 | 242 | 4.0 | 7.0 | 0.00 | 0.00 | 0.00 | 82 | 1016.8 |
| 20260505193035 | 58 | 223 | 0.0 | 0.0 | 0.00 | 0.00 | 0.00 | 83 | 1016.8 |
| 20260505191533 | 57 | 248 | 0.0 | 6.0 | 0.00 | 0.00 | 0.00 | 83 | 1016.9 |
| 20260505190041 | 57 | 264 | 2.0 | 5.0 | 0.00 | 0.00 | 0.00 | 83 | 1016.7 |
| 20260505184539 | 57 | 254 | 2.0 | 7.0 | 0.00 | 0.00 | 0.00 | 83 | 1016.7 |
| 20260505183034 | 58 | 219 | 3.0 | 4.0 | 0.00 | 0.00 | 0.00 | 83 | 1016.6 |
| 20260505181547 | 57 | 360 | 0.0 | 0.0 | 0.00 | 0.00 | 0.00 | 83 | 1016.5 |
| 20260505180100 | 57 | 215 | 0.0 | 0.0 | 0.00 | 0.00 | 0.00 | 84 | 1016.4 |
| 20260505174532 | 56 | 263 | 0.0 | 0.0 | 0.00 | 0.00 | 0.00 | 84 | 1016.4 |
| 20260505173030 | 56 | 360 | 0.0 | 0.0 | 0.00 | 0.00 | 0.00 | 84 | 1016.3 |
| 20260505171545 | 56 | 228 | 0.0 | 3.0 | 0.00 | 0.00 | 0.00 | 84 | 1016.3 |
| 20260505170037 | 56 | 360 | 1.0 | 6.0 | 0.00 | 0.00 | 0.00 | 84 | 1016.1 |
| 20260505164531 | 56 | 229 | 0.0 | 0.0 | 0.00 | 0.00 | 0.00 | 84 | 1016.1 |
| 20260505163045 | 56 | 224 | 0.0 | 0.0 | 0.00 | 0.00 | 0.00 | 84 | 1016.0 |
| 20260505161542 | 56 | 229 | 0.0 | 0.0 | 0.00 | 0.00 | 0.00 | 84 | 1015.9 |
| 20260505153041 | 56 | 231 | 0.0 | 0.0 | 0.00 | 0.00 | 0.00 | 85 | 1015.6 |
| 20260505151539 | 56 | 219 | 0.0 | 0.0 | 0.00 | 0.00 | 0.00 | 86 | 1015.5 |
| 20260505124530 | 55 | 229 | 0.0 | 0.0 | 0.00 | 0.00 | 0.00 | 85 | 1014.3 |
| 20260505123045 | 55 | 233 | 0.0 | 0.0 | 0.00 | 0.00 | 0.00 | 85 | 1014.4 |
| 20260505121536 | 55 | 225 | 0.0 | 0.0 | 0.00 | 0.00 | 0.00 | 85 | 1014.4 |
| 20260505120046 | 55 | 360 | 0.0 | 0.0 | 0.00 | 0.00 | 0.00 | 85 | 1014.3 |
| 20260505114539 | 55 | 244 | 0.0 | 0.0 | 0.00 | 0.00 | 0.00 | 85 | 1014.1 |
| 20260505113037 | 55 | 360 | 0.0 | 0.0 | 0.00 | 0.00 | 0.00 | 85 | 1014.1 |
| 20260505111530 | 55 | 241 | 0.0 | 0.0 | 0.00 | 0.00 | 0.00 | 85 | 1014.2 |
| 20260505101545 | 55 | 239 | 0.0 | 5.0 | 0.00 | 0.00 | 0.00 | 85 | 1014.0 |
| 20260505100032 | 55 | 238 | 3.0 | 7.0 | 0.00 | 0.00 | 0.00 | 85 | 1014.0 |
| 20260505094604 | 55 | 240 | 1.0 | 6.0 | 0.00 | 0.00 | 0.00 | 85 | 1013.8 |
| 20260505093042 | 55 | 228 | 0.0 | 0.0 | 0.00 | 0.00 | 0.00 | 85 | 1013.8 |
| 20260505091532 | 55 | 229 | 0.0 | 2.0 | 0.00 | 0.00 | 0.00 | 85 | 1013.7 |
| 20260505090044 | 55 | 360 | 4.0 | 6.0 | 0.00 | 0.00 | 0.00 | 85 | 1013.7 |
| 20260505084537 | 55 | 233 | 2.0 | 4.0 | 0.00 | 0.00 | 0.00 | 85 | 1013.6 |
| 20260505083035 | 56 | 240 | 2.0 | 5.0 | 0.00 | 0.00 | 0.00 | 85 | 1013.5 |
| 20260505081529 | 56 | 204 | 0.0 | 5.0 | 0.00 | 0.00 | 0.00 | 85 | 1013.6 |
| 20260505080037 | 56 | 360 | 0.0 | 4.0 | 0.00 | 0.00 | 0.00 | 84 | 1013.5 |
| 20260505074536 | 56 | 251 | 2.0 | 6.0 | 0.00 | 0.00 | 0.00 | 84 | 1013.5 |
| 20260505073048 | 56 | 221 | 4.0 | 7.0 | 0.00 | 0.00 | 0.00 | 84 | 1013.4 |
| 20260505071544 | 56 | 253 | 4.0 | 9.0 | 0.00 | 0.00 | 0.00 | 84 | 1013.3 |
| 20260505070033 | 56 | 194 | 5.0 | 11.0 | 0.00 | 0.00 | 0.00 | 84 | 1013.3 |
| 20260505064530 | 56 | 360 | 4.0 | 7.0 | 0.00 | 0.00 | 0.00 | 84 | 1013.2 |
| 20260505063043 | 56 | 265 | 4.0 | 6.0 | 0.00 | 0.00 | 0.00 | 84 | 1013.0 |
| 20260505061556 | 56 | 254 | 4.0 | 9.0 | 0.00 | 0.00 | 0.00 | 84 | 1013.0 |
| 20260505060028 | 56 | 263 | 3.0 | 6.0 | 0.00 | 0.00 | 0.00 | 84 | 1013.0 |
| 20260505054541 | 56 | 215 | 4.0 | 7.0 | 0.00 | 0.00 | 0.00 | 84 | 1012.9 |
| 20260505053039 | 56 | 257 | 2.0 | 9.0 | 0.00 | 0.00 | 0.00 | 84 | 1012.9 |
| 20260505051532 | 56 | 244 | 2.0 | 8.0 | 0.00 | 0.00 | 0.00 | 84 | 1012.9 |
| 20260505041607 | 57 | 247 | 5.0 | 8.0 | 0.00 | 0.00 | 0.00 | 83 | 1012.7 |